Location: Newark
(44.5208°N, 2.4294°E)
Time: 10:27:47
(UTC+00:00)

ISS - Visible Passes

Search period start: 21 October 2019 00:00
Search period end: 31 October 2019 00:00
Orbit: 411 x 421 km, 51.6° (Epoch: 21 October)

Date Brightness Start Highest point End Pass type
(mag) Time Alt. Az. Time Alt. Az. Time Alt. Az.
23 Oct -1.1 05:35:48 10° S 05:38:24 21° SE 05:41:02 10° E visible
24 Oct -0.7 04:48:25 10° SSE 04:50:01 13° SE 04:51:38 10° ESE visible
25 Oct -3.0 05:34:27 10° SW 05:37:44 53° SE 05:41:02 10° ENE visible
26 Oct -2.1 04:46:44 14° SSW 04:49:13 32° SE 04:52:15 10° ENE visible
27 Oct -1.4 04:00:46 20° SE 04:00:46 20° SE 04:03:15 10° E visible
27 Oct -3.7 05:33:50 10° WSW 05:37:11 66° NNW 05:40:33 10° NE visible
28 Oct -3.8 04:47:33 42° SW 04:48:33 81° SSE 04:51:55 10° ENE visible
29 Oct -1.8 04:01:14 30° E 04:01:14 30° E 04:03:13 10° ENE visible
29 Oct -2.9 05:34:09 13° W 05:36:47 35° NNW 05:39:55 10° NE visible
30 Oct -3.4 04:47:44 46° NW 04:48:01 48° NNW 04:51:18 10° NE visible
